Location: Eexterzandvoort
(53.0303°N, 6.7884°E)
Time: 20:23:06
(UTC+00:00)

Cosmos 1151 Rocket - Pass Details

Date: 19 May 2025
Orbit: 586 x 607 km, 82.5° (Epoch: 15 June)

Event Time Altitude Azimuth Distance (km) Brightness Sun altitude
Exits shadow 22:19:32 19° 120° (ESE) 1,431 4.5 -15.4°
Maximum altitude 22:21:08 24° 87° (E) 1,252 4.5 -15.5°
Drops below altitude 10° 22:24:31 10° 35° (NE) 1,922 6.1 -15.6°
Sets 22:27:02 0° 21° (NNE) 2,829 7.4 -15.7°
